QFA790 YBAS-YSSY

Flight info

Callsign QFA790
Flight time 2h 59m
Altitude 37000
Route YBAS/12 MUDMO1 KALUG A576 APOMA Y52 VELGI Y105 TARAL Y59 RIVET RIVET4 YSSY/34L
Aircraft B738/M-SDE2E3FGHIRWXY/LB1

Departure

Time 2026-04-26 04:30
Airport Alice Springs Airport (YBAS)

Arrival

Time 2026-04-26 07:30
Airport Sydney Kingsford Smith International Airport (YSSY)
Time Latitude Longitude Altitude Speed Heading
2026-04-26 04:07 -23.80337 133.90232 1786 ft 0 kts 71°
2026-04-26 04:07 -23.80338 133.90232 1786 ft 0 kts 71°
2026-04-26 04:20 -23.80345 133.90210 1786 ft 4 kts 62°
2026-04-26 04:20 -23.80361 133.90188 1785 ft 4 kts 36°
2026-04-26 04:20 -23.80382 133.90176 1785 ft 1 kts 17°
2026-04-26 04:21 -23.80386 133.90175 1786 ft 0 kts 17°
2026-04-26 04:24 -23.80379 133.90176 1786 ft 5 kts 10°
2026-04-26 04:25 -23.80351 133.90156 1786 ft 5 kts 302°
2026-04-26 04:25 -23.80339 133.90136 1787 ft 5 kts 301°
2026-04-26 04:25 -23.80318 133.90096 1787 ft 5 kts 301°
2026-04-26 04:25 -23.80302 133.90067 1787 ft 4 kts 300°
2026-04-26 04:26 -23.80297 133.90045 1788 ft 4 kts 271°
2026-04-26 04:26 -23.80320 133.90010 1786 ft 4 kts 213°
2026-04-26 04:26 -23.80337 133.89998 1787 ft 4 kts 212°
2026-04-26 04:26 -23.80362 133.89981 1788 ft 4 kts 212°
2026-04-26 04:27 -23.80389 133.89963 1788 ft 5 kts 214°
2026-04-26 04:27 -23.80410 133.89932 1788 ft 5 kts 256°
2026-04-26 04:27 -23.80398 133.89891 1787 ft 6 kts 298°
2026-04-26 04:27 -23.80373 133.89843 1788 ft 8 kts 300°
2026-04-26 04:28 -23.80333 133.89769 1788 ft 15 kts 300°
2026-04-26 04:28 -23.80265 133.89647 1788 ft 22 kts 302°
2026-04-26 04:28 -23.80184 133.89505 1790 ft 21 kts 302°
2026-04-26 04:28 -23.80157 133.89373 1791 ft 9 kts 276°
2026-04-26 04:29 -23.80136 133.89346 1792 ft 5 kts 354°
2026-04-26 04:29 -23.80122 133.89373 1792 ft 5 kts 105°
2026-04-26 04:29 -23.80137 133.89407 1790 ft 5 kts 121°
2026-04-26 04:29 -23.80203 133.89528 1788 ft 49 kts 120°
2026-04-26 04:30 -23.80504 133.90087 1786 ft 119 kts 120°
2026-04-26 04:30 -23.81022 133.91050 1863 ft 169 kts 121°
2026-04-26 04:30 -23.81626 133.92160 2724 ft 168 kts 119°
2026-04-26 04:30 -23.82235 133.93285 3413 ft 175 kts 119°
2026-04-26 04:31 -23.82880 133.94496 3870 ft 201 kts 119°
2026-04-26 04:31 -23.83621 133.95874 4097 ft 226 kts 119°
2026-04-26 04:31 -23.84493 133.97414 4421 ft 252 kts 123°
2026-04-26 04:31 -23.85622 133.98966 5008 ft 266 kts 131°
2026-04-26 04:32 -23.86930 134.00400 5928 ft 267 kts 136°
2026-04-26 04:32 -23.88389 134.01684 6732 ft 272 kts 144°
2026-04-26 04:32 -23.89935 134.02864 7655 ft 271 kts 142°
2026-04-26 04:32 -23.91411 134.04174 8478 ft 275 kts 137°
2026-04-26 04:33 -23.92789 134.05639 9316 ft 278 kts 134°
2026-04-26 04:33 -23.94063 134.07244 10148 ft 281 kts 130°
2026-04-26 04:33 -23.95339 134.08941 10546 ft 301 kts 130°
2026-04-26 04:33 -23.96733 134.10779 10707 ft 326 kts 130°
2026-04-26 04:34 -23.98233 134.12754 10868 ft 349 kts 130°
2026-04-26 04:34 -23.99827 134.14854 11071 ft 367 kts 130°
2026-04-26 04:34 -24.01478 134.17032 11530 ft 376 kts 130°
2026-04-26 04:34 -24.03152 134.19242 12163 ft 378 kts 130°
2026-04-26 04:35 -24.04841 134.21473 12747 ft 383 kts 130°
2026-04-26 04:35 -24.06557 134.23739 13265 ft 389 kts 131°
2026-04-26 04:35 -24.08270 134.26003 13806 ft 394 kts 131°
2026-04-26 04:35 -24.10026 134.28325 14295 ft 398 kts 131°
2026-04-26 04:36 -24.11792 134.30662 14852 ft 399 kts 130°
2026-04-26 04:36 -24.13565 134.33010 15400 ft 401 kts 130°
2026-04-26 04:36 -24.15354 134.35379 15911 ft 405 kts 130°
2026-04-26 04:36 -24.17155 134.37765 16395 ft 408 kts 130°
2026-04-26 04:37 -24.18969 134.40169 16906 ft 411 kts 130°
2026-04-26 04:37 -24.20794 134.42590 17374 ft 414 kts 130°
2026-04-26 04:37 -24.22634 134.45031 17835 ft 417 kts 130°
2026-04-26 04:37 -24.24490 134.47496 18300 ft 420 kts 130°
2026-04-26 04:38 -24.26359 134.49978 18702 ft 423 kts 130°
2026-04-26 04:38 -24.28239 134.52476 19067 ft 426 kts 130°
2026-04-26 04:38 -24.30104 134.54956 19453 ft 429 kts 130°
2026-04-26 04:38 -24.32009 134.57490 19843 ft 432 kts 130°
2026-04-26 04:39 -24.33929 134.60046 20219 ft 435 kts 130°
2026-04-26 04:39 -24.35856 134.62613 20599 ft 438 kts 131°
2026-04-26 04:39 -24.37796 134.65197 20969 ft 441 kts 131°
2026-04-26 04:39 -24.39756 134.67810 21347 ft 443 kts 131°
2026-04-26 04:40 -24.41724 134.70434 21705 ft 446 kts 131°
2026-04-26 04:40 -24.43702 134.73074 22059 ft 449 kts 131°
2026-04-26 04:40 -24.45695 134.75735 22400 ft 452 kts 131°
2026-04-26 04:40 -24.47695 134.78407 22757 ft 455 kts 131°
2026-04-26 04:41 -24.49688 134.81070 23068 ft 458 kts 131°
2026-04-26 04:41 -24.51715 134.83781 23386 ft 461 kts 131°
2026-04-26 04:41 -24.53753 134.86509 23708 ft 464 kts 131°
2026-04-26 04:41 -24.55804 134.89255 23987 ft 466 kts 131°
2026-04-26 04:42 -24.57863 134.92014 24247 ft 468 kts 131°
2026-04-26 04:42 -24.59937 134.94794 24509 ft 471 kts 131°
2026-04-26 04:42 -24.62018 134.97584 24776 ft 473 kts 132°
2026-04-26 04:42 -24.64104 135.00385 25050 ft 475 kts 132°
2026-04-26 04:43 -24.66201 135.03200 25291 ft 477 kts 132°
2026-04-26 04:43 -24.68310 135.06034 25535 ft 480 kts 132°
2026-04-26 04:43 -24.70426 135.08880 25790 ft 482 kts 132°
2026-04-26 04:43 -24.72553 135.11741 26037 ft 484 kts 132°
2026-04-26 04:44 -24.74686 135.14612 26264 ft 486 kts 132°
2026-04-26 04:44 -24.76832 135.17502 26492 ft 488 kts 132°
2026-04-26 04:44 -24.78985 135.20403 26733 ft 490 kts 132°
2026-04-26 04:44 -24.81143 135.23314 26965 ft 492 kts 132°
2026-04-26 04:45 -24.83310 135.26239 27168 ft 494 kts 132°
2026-04-26 04:45 -24.85459 135.29139 27366 ft 496 kts 133°
2026-04-26 04:45 -24.87642 135.32089 27571 ft 498 kts 133°
2026-04-26 04:45 -24.89834 135.35051 27792 ft 500 kts 133°
2026-04-26 04:46 -24.92031 135.38024 27993 ft 501 kts 133°
2026-04-26 04:46 -24.94239 135.41012 28248 ft 502 kts 133°
2026-04-26 04:46 -24.96438 135.43992 28576 ft 501 kts 133°
2026-04-26 04:46 -24.98632 135.46966 28912 ft 500 kts 133°
2026-04-26 04:47 -25.00823 135.49939 29189 ft 500 kts 133°
2026-04-26 04:47 -25.03021 135.52921 29440 ft 501 kts 133°
2026-04-26 04:47 -25.05219 135.55906 29746 ft 501 kts 133°
2026-04-26 04:47 -25.07415 135.58889 30078 ft 500 kts 133°
2026-04-26 04:48 -25.11802 135.64855 30575 ft 501 kts 133°
2026-04-26 04:48 -25.13997 135.67842 30847 ft 501 kts 134°
2026-04-26 04:48 -25.16167 135.70798 31148 ft 500 kts 134°
2026-04-26 04:49 -25.18353 135.73779 31417 ft 500 kts 134°
2026-04-26 04:49 -25.20542 135.76763 31671 ft 500 kts 134°
2026-04-26 04:49 -25.22729 135.79748 31961 ft 499 kts 134°
2026-04-26 04:49 -25.24907 135.82722 32284 ft 498 kts 134°
2026-04-26 04:50 -25.27085 135.85699 32557 ft 498 kts 134°
2026-04-26 04:50 -25.29262 135.88675 32820 ft 498 kts 134°
2026-04-26 04:50 -25.31438 135.91651 33138 ft 497 kts 134°
2026-04-26 04:50 -25.33601 135.94614 33487 ft 495 kts 135°
2026-04-26 04:51 -25.35758 135.97571 33806 ft 494 kts 135°
2026-04-26 04:51 -25.37917 136.00530 34082 ft 493 kts 135°
2026-04-26 04:51 -25.40070 136.03481 34328 ft 493 kts 135°
2026-04-26 04:51 -25.42223 136.06435 34529 ft 493 kts 135°
2026-04-26 04:52 -25.44381 136.09398 34694 ft 495 kts 135°
2026-04-26 04:52 -25.46540 136.12363 34861 ft 496 kts 135°
2026-04-26 04:52 -25.48702 136.15335 35062 ft 496 kts 135°
2026-04-26 04:52 -25.50867 136.18314 35262 ft 496 kts 135°
2026-04-26 04:53 -25.53035 136.21299 35412 ft 498 kts 135°
2026-04-26 04:53 -25.55211 136.24296 35553 ft 500 kts 135°
2026-04-26 04:53 -25.57390 136.27300 35747 ft 500 kts 135°
2026-04-26 04:53 -25.59567 136.30304 35962 ft 500 kts 136°
2026-04-26 04:54 -25.61745 136.33312 36155 ft 500 kts 136°
2026-04-26 04:54 -25.63920 136.36316 36380 ft 500 kts 136°
2026-04-26 04:54 -25.66067 136.39286 36589 ft 499 kts 136°
2026-04-26 04:54 -25.68239 136.42289 36774 ft 499 kts 136°
2026-04-26 04:55 -25.70418 136.45304 36902 ft 501 kts 136°
2026-04-26 04:55 -25.72592 136.48315 37020 ft 500 kts 136°
2026-04-26 04:55 -25.76943 136.54346 37064 ft 502 kts 136°
2026-04-26 04:56 -25.81308 136.60405 37080 ft 503 kts 136°
2026-04-26 04:56 -25.85683 136.66487 37077 ft 505 kts 136°
2026-04-26 04:57 -25.90072 136.72595 37072 ft 506 kts 136°
2026-04-26 04:57 -25.94461 136.78712 37067 ft 507 kts 136°
2026-04-26 04:58 -25.98853 136.84842 37068 ft 507 kts 136°
2026-04-26 04:58 -26.03218 136.90945 37067 ft 507 kts 136°
2026-04-26 04:59 -26.07605 136.97087 37074 ft 507 kts 136°
2026-04-26 04:59 -26.09766 137.00107 37332 ft 488 kts 132°
2026-04-26 04:59 -26.11826 137.03005 37163 ft 467 kts 132°
2026-04-26 05:00 -26.13800 137.05789 37088 ft 449 kts 132°
2026-04-26 05:00 -26.15704 137.08473 37065 ft 434 kts 133°
2026-04-26 05:00 -26.17541 137.11059 37051 ft 420 kts 133°
2026-04-26 05:00 -26.19357 137.13609 37071 ft 421 kts 133°
2026-04-26 05:01 -26.23038 137.18768 37089 ft 429 kts 133°
2026-04-26 05:01 -26.26781 137.24030 37076 ft 437 kts 133°
2026-04-26 05:02 -26.30589 137.29369 37077 ft 442 kts 133°
2026-04-26 05:02 -26.34381 137.34739 37087 ft 444 kts 132°
2026-04-26 05:03 -26.38206 137.40158 37081 ft 445 kts 133°
2026-04-26 05:03 -26.42035 137.45581 37076 ft 444 kts 133°
2026-04-26 05:04 -26.45853 137.50993 37073 ft 443 kts 133°
2026-04-26 05:04 -26.49655 137.56386 37073 ft 441 kts 133°
2026-04-26 05:05 -26.53444 137.61767 37072 ft 440 kts 133°
2026-04-26 05:05 -26.57218 137.67134 37077 ft 439 kts 133°
2026-04-26 05:06 -26.60987 137.72498 37079 ft 438 kts 133°
2026-04-26 05:06 -26.64741 137.77850 37075 ft 437 kts 133°
2026-04-26 05:07 -26.68467 137.83166 37076 ft 436 kts 133°
2026-04-26 05:07 -26.72204 137.88505 37089 ft 436 kts 133°
2026-04-26 05:08 -26.75939 137.93849 37075 ft 435 kts 133°
2026-04-26 05:08 -26.79663 137.99181 37077 ft 434 kts 133°
2026-04-26 05:09 -26.83378 138.04509 37079 ft 434 kts 133°
2026-04-26 05:09 -26.87090 138.09838 37082 ft 434 kts 133°
2026-04-26 05:10 -26.90799 138.15169 37082 ft 434 kts 133°
2026-04-26 05:10 -26.94505 138.20501 37082 ft 434 kts 133°
2026-04-26 05:11 -26.98213 138.25841 37085 ft 433 kts 133°
2026-04-26 05:11 -27.01914 138.31179 37082 ft 433 kts 133°
2026-04-26 05:12 -27.05586 138.36484 37084 ft 433 kts 134°
2026-04-26 05:12 -27.09280 138.41825 37082 ft 433 kts 134°
2026-04-26 05:13 -27.12969 138.47166 37084 ft 432 kts 134°
2026-04-26 05:13 -27.16650 138.52503 37082 ft 432 kts 134°
2026-04-26 05:14 -27.19707 138.56939 37084 ft 431 kts 134°
2026-04-26 05:14 -27.23992 138.63165 37084 ft 430 kts 134°
2026-04-26 05:15 -27.27035 138.67591 37080 ft 430 kts 134°
2026-04-26 05:15 -27.30682 138.72903 37086 ft 429 kts 134°
2026-04-26 05:16 -27.34323 138.78212 37085 ft 428 kts 134°
2026-04-26 05:16 -27.37957 138.83516 37086 ft 427 kts 134°
2026-04-26 05:17 -27.41558 138.88780 37087 ft 427 kts 134°
2026-04-26 05:17 -27.45176 138.94074 37087 ft 426 kts 134°
2026-04-26 05:18 -27.48785 138.99361 37091 ft 425 kts 135°
2026-04-26 05:18 -27.52385 139.04643 37089 ft 425 kts 135°
2026-04-26 05:19 -27.55983 139.09926 37088 ft 424 kts 135°
2026-04-26 05:19 -27.59570 139.15201 37081 ft 424 kts 135°
2026-04-26 05:20 -27.63151 139.20473 37092 ft 423 kts 135°
2026-04-26 05:20 -27.66727 139.25744 37094 ft 423 kts 135°
2026-04-26 05:21 -27.70277 139.30982 37097 ft 422 kts 135°
2026-04-26 05:21 -27.73845 139.36254 37094 ft 422 kts 135°
2026-04-26 05:22 -27.77410 139.41528 37086 ft 422 kts 135°
2026-04-26 05:22 -27.80972 139.46804 37096 ft 422 kts 135°
2026-04-26 05:23 -27.84534 139.52086 37094 ft 422 kts 135°
2026-04-26 05:23 -27.88093 139.57370 37093 ft 422 kts 135°
2026-04-26 05:24 -27.91646 139.62653 37102 ft 422 kts 135°
2026-04-26 05:24 -27.95176 139.67907 37098 ft 422 kts 135°
2026-04-26 05:25 -27.98729 139.73201 37101 ft 422 kts 136°
2026-04-26 05:25 -28.02278 139.78498 37102 ft 422 kts 136°
2026-04-26 05:26 -28.05824 139.83795 37101 ft 422 kts 136°
2026-04-26 05:26 -28.09370 139.89098 37104 ft 422 kts 136°
2026-04-26 05:27 -28.12905 139.94393 37102 ft 421 kts 136°
2026-04-26 05:27 -28.16411 139.99651 37105 ft 421 kts 136°
2026-04-26 05:28 -28.19941 140.04949 37103 ft 421 kts 136°
2026-04-26 05:28 -28.23463 140.10244 37106 ft 420 kts 136°
2026-04-26 05:29 -28.26980 140.15537 37108 ft 420 kts 136°
2026-04-26 05:29 -28.30495 140.20834 37110 ft 419 kts 137°
2026-04-26 05:30 -28.34002 140.26126 37115 ft 419 kts 137°
2026-04-26 05:30 -28.37505 140.31417 37119 ft 419 kts 137°
2026-04-26 05:31 -28.40976 140.36668 37108 ft 418 kts 137°
2026-04-26 05:31 -28.44470 140.41958 37115 ft 418 kts 137°
2026-04-26 05:32 -28.47956 140.47245 37112 ft 418 kts 137°
2026-04-26 05:32 -28.51440 140.52534 37119 ft 417 kts 137°
2026-04-26 05:33 -28.54923 140.57828 37122 ft 417 kts 137°
2026-04-26 05:33 -28.58399 140.63117 37120 ft 417 kts 138°
2026-04-26 05:34 -28.61876 140.68416 37124 ft 417 kts 138°
2026-04-26 05:34 -28.65326 140.73680 37124 ft 418 kts 138°
2026-04-26 05:35 -28.68823 140.79022 37125 ft 418 kts 138°
2026-04-26 05:35 -28.72276 140.84303 37138 ft 419 kts 138°
2026-04-26 05:36 -28.75763 140.89642 37138 ft 420 kts 138°
2026-04-26 05:36 -28.79252 140.94992 37129 ft 421 kts 138°
2026-04-26 05:37 -28.82754 141.00369 37130 ft 423 kts 138°
2026-04-26 05:37 -28.86267 141.05769 37132 ft 424 kts 139°
2026-04-26 05:38 -28.89792 141.11194 37133 ft 426 kts 139°
2026-04-26 05:38 -28.93330 141.16647 37133 ft 428 kts 139°
2026-04-26 05:39 -28.96881 141.22127 37139 ft 430 kts 139°
2026-04-26 05:39 -29.00428 141.27609 37130 ft 433 kts 139°
2026-04-26 05:40 -29.04011 141.33155 37129 ft 434 kts 139°
2026-04-26 05:40 -29.07610 141.38733 37135 ft 436 kts 138°
2026-04-26 05:41 -29.11217 141.44329 37136 ft 438 kts 138°
2026-04-26 05:41 -29.14841 141.49960 37139 ft 440 kts 138°
2026-04-26 05:42 -29.18472 141.55611 37138 ft 441 kts 137°
2026-04-26 05:42 -29.22090 141.61247 37130 ft 443 kts 137°
2026-04-26 05:43 -29.25744 141.66948 37137 ft 444 kts 137°
2026-04-26 05:43 -29.29402 141.72664 37142 ft 445 kts 137°
2026-04-26 05:44 -29.33066 141.78396 37144 ft 446 kts 136°
2026-04-26 05:44 -29.36737 141.84148 37141 ft 448 kts 136°
2026-04-26 05:45 -29.40416 141.89919 37139 ft 449 kts 136°
2026-04-26 05:45 -29.44104 141.95714 37142 ft 450 kts 135°
2026-04-26 05:46 -29.47773 142.01486 37151 ft 451 kts 135°
2026-04-26 05:46 -29.51481 142.07326 37149 ft 452 kts 134°
2026-04-26 05:47 -29.55191 142.13179 37150 ft 454 kts 134°
2026-04-26 05:47 -29.58916 142.19065 37151 ft 456 kts 133°
2026-04-26 05:48 -29.62629 142.24940 37149 ft 458 kts 133°
2026-04-26 05:48 -29.66369 142.30867 37143 ft 459 kts 133°
2026-04-26 05:49 -29.72000 142.39807 37147 ft 461 kts 132°
2026-04-26 05:50 -29.75759 142.45786 37143 ft 461 kts 132°
2026-04-26 05:50 -29.79521 142.51779 37143 ft 462 kts 131°
2026-04-26 05:51 -29.83277 142.57770 37142 ft 462 kts 131°
2026-04-26 05:51 -29.87042 142.63785 37148 ft 462 kts 131°
2026-04-26 05:52 -29.90812 142.69740 37144 ft 461 kts 133°
2026-04-26 05:52 -29.94827 142.75499 37148 ft 460 kts 134°
2026-04-26 05:53 -29.98907 142.81186 37153 ft 460 kts 134°
2026-04-26 05:53 -30.02970 142.86896 37152 ft 461 kts 133°
2026-04-26 05:54 -30.07015 142.92637 37150 ft 461 kts 133°
2026-04-26 05:54 -30.11051 142.98393 37157 ft 461 kts 133°
2026-04-26 05:55 -30.15063 143.04124 37157 ft 462 kts 132°
2026-04-26 05:55 -30.19108 143.09910 37158 ft 462 kts 132°
2026-04-26 05:56 -30.23146 143.15693 37157 ft 463 kts 131°
2026-04-26 05:56 -30.27194 143.21497 37159 ft 463 kts 131°
2026-04-26 05:57 -30.31236 143.27303 37160 ft 464 kts 131°
2026-04-26 05:57 -30.35273 143.33110 37161 ft 464 kts 131°
2026-04-26 05:58 -30.39319 143.38938 37162 ft 465 kts 131°
2026-04-26 05:58 -30.43381 143.44797 37165 ft 466 kts 130°
2026-04-26 05:59 -30.47440 143.50661 37166 ft 467 kts 130°
2026-04-26 05:59 -30.51500 143.56535 37164 ft 467 kts 130°
2026-04-26 06:00 -30.55539 143.62387 37164 ft 468 kts 130°
2026-04-26 06:00 -30.59606 143.68289 37172 ft 468 kts 130°
2026-04-26 06:01 -30.63678 143.74208 37166 ft 469 kts 130°
2026-04-26 06:01 -30.67754 143.80139 37171 ft 470 kts 129°
2026-04-26 06:02 -30.71833 143.86085 37168 ft 469 kts 129°
2026-04-26 06:02 -30.75897 143.92019 37172 ft 469 kts 129°
2026-04-26 06:03 -30.79958 143.97956 37176 ft 468 kts 129°
2026-04-26 06:03 -30.84008 144.03886 37172 ft 468 kts 129°
2026-04-26 06:04 -30.88027 144.09780 37178 ft 468 kts 128°
2026-04-26 06:04 -30.92070 144.15717 37175 ft 467 kts 128°
2026-04-26 06:05 -30.95456 144.20698 37180 ft 467 kts 128°
2026-04-26 06:05 -30.99466 144.26603 37178 ft 468 kts 128°
2026-04-26 06:06 -31.03499 144.32552 37180 ft 468 kts 128°
2026-04-26 06:06 -31.07539 144.38520 37177 ft 468 kts 128°
2026-04-26 06:07 -31.11572 144.44487 37186 ft 468 kts 128°
2026-04-26 06:07 -31.15610 144.50471 37180 ft 469 kts 128°
2026-04-26 06:08 -31.19626 144.56431 37187 ft 469 kts 128°
2026-04-26 06:08 -31.23661 144.62430 37186 ft 470 kts 128°
2026-04-26 06:09 -31.27700 144.68442 37186 ft 470 kts 128°
2026-04-26 06:09 -31.31733 144.74455 37190 ft 470 kts 128°
2026-04-26 06:10 -31.35767 144.80479 37193 ft 470 kts 127°
2026-04-26 06:10 -31.39797 144.86506 37193 ft 470 kts 127°
2026-04-26 06:11 -31.43828 144.92545 37195 ft 470 kts 127°
2026-04-26 06:11 -31.47831 144.98551 37191 ft 470 kts 127°
2026-04-26 06:12 -31.51848 145.04588 37193 ft 470 kts 127°
2026-04-26 06:12 -31.55868 145.10636 37192 ft 470 kts 127°
2026-04-26 06:13 -31.59881 145.16686 37190 ft 469 kts 127°
2026-04-26 06:13 -31.63887 145.22734 37189 ft 469 kts 127°
2026-04-26 06:14 -31.67887 145.28782 37190 ft 468 kts 127°
2026-04-26 06:14 -31.71878 145.34826 37190 ft 468 kts 127°
2026-04-26 06:15 -31.75836 145.40830 37189 ft 467 kts 127°
2026-04-26 06:15 -31.79815 145.46875 37191 ft 467 kts 127°
2026-04-26 06:16 -31.83788 145.52922 37185 ft 466 kts 126°
2026-04-26 06:16 -31.87753 145.58964 37188 ft 466 kts 126°
2026-04-26 06:17 -31.91713 145.65009 37191 ft 466 kts 126°
2026-04-26 06:17 -31.95643 145.71017 37195 ft 465 kts 126°
2026-04-26 06:18 -31.99591 145.77063 37196 ft 465 kts 126°
2026-04-26 06:18 -32.03537 145.83116 37188 ft 465 kts 126°
2026-04-26 06:19 -32.07449 145.89125 37193 ft 465 kts 126°
2026-04-26 06:19 -32.11380 145.95173 37200 ft 465 kts 126°
2026-04-26 06:20 -32.15314 146.01236 37187 ft 465 kts 126°
2026-04-26 06:20 -32.19248 146.07309 37190 ft 465 kts 126°
2026-04-26 06:21 -32.23182 146.13391 37188 ft 466 kts 126°
2026-04-26 06:21 -32.27115 146.19482 37189 ft 466 kts 126°
2026-04-26 06:22 -32.31024 146.25544 37196 ft 467 kts 126°
2026-04-26 06:22 -32.34964 146.31664 37191 ft 467 kts 126°
2026-04-26 06:23 -32.38899 146.37788 37195 ft 467 kts 126°
2026-04-26 06:23 -32.42830 146.43915 37195 ft 467 kts 126°
2026-04-26 06:24 -32.46759 146.50047 37192 ft 467 kts 126°
2026-04-26 06:24 -32.50660 146.56147 37194 ft 467 kts 126°
2026-04-26 06:25 -32.54580 146.62287 37191 ft 467 kts 126°
2026-04-26 06:25 -32.58502 146.68438 37194 ft 466 kts 126°
2026-04-26 06:26 -32.62411 146.74581 37191 ft 466 kts 126°
2026-04-26 06:26 -32.66312 146.80721 37191 ft 465 kts 126°
2026-04-26 06:27 -32.70178 146.86816 37190 ft 465 kts 126°
2026-04-26 06:27 -32.74063 146.92950 37195 ft 464 kts 126°
2026-04-26 06:28 -32.77942 146.99085 37194 ft 464 kts 126°
2026-04-26 06:28 -32.81807 147.05209 37194 ft 463 kts 126°
2026-04-26 06:29 -32.85670 147.11339 37193 ft 463 kts 126°
2026-04-26 06:29 -32.89523 147.17462 37192 ft 462 kts 126°
2026-04-26 06:30 -32.93373 147.23592 37194 ft 462 kts 126°
2026-04-26 06:30 -32.97215 147.29719 37197 ft 462 kts 126°
2026-04-26 06:31 -33.01026 147.35808 37194 ft 461 kts 126°
2026-04-26 06:31 -33.04857 147.41937 37196 ft 461 kts 126°
2026-04-26 06:32 -33.08687 147.48075 37195 ft 461 kts 126°
2026-04-26 06:32 -33.12517 147.54223 37201 ft 461 kts 126°
2026-04-26 06:33 -33.16348 147.60383 37194 ft 461 kts 126°
2026-04-26 06:33 -33.20167 147.66535 37198 ft 461 kts 126°
2026-04-26 06:34 -33.23997 147.72714 37197 ft 462 kts 126°
2026-04-26 06:34 -33.27812 147.78879 37198 ft 462 kts 126°
2026-04-26 06:35 -33.31601 147.85013 37199 ft 462 kts 126°
2026-04-26 06:35 -33.35419 147.91203 37198 ft 462 kts 126°
2026-04-26 06:36 -33.39522 147.97113 37204 ft 462 kts 133°
2026-04-26 06:36 -33.43929 148.02714 37199 ft 462 kts 134°
2026-04-26 06:37 -33.48344 148.08310 37209 ft 462 kts 133°
2026-04-26 06:37 -33.52721 148.13949 37203 ft 462 kts 133°
2026-04-26 06:38 -33.57091 148.19633 37206 ft 462 kts 133°
2026-04-26 06:38 -33.61413 148.25272 37212 ft 462 kts 133°
2026-04-26 06:39 -33.65760 148.30950 37205 ft 462 kts 133°
2026-04-26 06:39 -33.70113 148.36644 37212 ft 462 kts 133°
2026-04-26 06:40 -33.74458 148.42335 37207 ft 462 kts 133°
2026-04-26 06:40 -33.78798 148.48029 37208 ft 462 kts 133°
2026-04-26 06:41 -33.83137 148.53731 37212 ft 461 kts 133°
2026-04-26 06:41 -33.87469 148.59434 37205 ft 461 kts 133°
2026-04-26 06:42 -33.91772 148.65106 37212 ft 461 kts 133°
2026-04-26 06:42 -33.96094 148.70813 37223 ft 461 kts 133°
2026-04-26 06:43 -34.00415 148.76528 37224 ft 461 kts 133°
2026-04-26 06:43 -34.04731 148.82246 37224 ft 461 kts 133°
2026-04-26 06:44 -34.09045 148.87971 37225 ft 461 kts 133°
2026-04-26 06:44 -34.13354 148.93700 37229 ft 461 kts 133°
2026-04-26 06:45 -34.17663 148.99437 37223 ft 461 kts 133°
2026-04-26 06:45 -34.21935 149.05133 37220 ft 461 kts 133°
2026-04-26 06:46 -34.26235 149.10877 37223 ft 461 kts 133°
2026-04-26 06:46 -34.30539 149.16636 37235 ft 461 kts 132°
2026-04-26 06:47 -34.34839 149.22399 37236 ft 461 kts 132°
2026-04-26 06:47 -34.39136 149.28166 37236 ft 461 kts 132°
2026-04-26 06:47 -34.41160 149.31172 37125 ft 463 kts 124°
2026-04-26 06:48 -34.42733 149.34600 36540 ft 467 kts 113°
2026-04-26 06:48 -34.43771 149.38307 35919 ft 464 kts 103°
2026-04-26 06:48 -34.44305 149.42173 35240 ft 465 kts 98°
2026-04-26 06:48 -34.44731 149.46058 34540 ft 466 kts 98°
2026-04-26 06:49 -34.45145 149.49950 33763 ft 467 kts 98°
2026-04-26 06:49 -34.45572 149.53853 32952 ft 468 kts 98°
2026-04-26 06:49 -34.46011 149.57707 32170 ft 468 kts 98°
2026-04-26 06:49 -34.46474 149.61665 31356 ft 469 kts 98°
2026-04-26 06:50 -34.46939 149.65579 30545 ft 470 kts 98°
2026-04-26 06:50 -34.47401 149.69459 29591 ft 471 kts 98°
2026-04-26 06:50 -34.47869 149.73396 28610 ft 472 kts 98°
2026-04-26 06:50 -34.48336 149.77351 27682 ft 472 kts 97°
2026-04-26 06:51 -34.48794 149.81248 27045 ft 465 kts 97°
2026-04-26 06:51 -34.49640 149.88849 25676 ft 441 kts 92°
2026-04-26 06:51 -34.49516 149.92499 25038 ft 428 kts 81°
2026-04-26 06:52 -34.48854 149.95952 24505 ft 415 kts 71°
2026-04-26 06:52 -34.47735 149.99130 23921 ft 404 kts 61°
2026-04-26 06:52 -34.46403 150.02095 23252 ft 396 kts 60°
2026-04-26 06:52 -34.45087 150.04987 22607 ft 388 kts 60°
2026-04-26 06:53 -34.43816 150.07790 22023 ft 380 kts 60°
2026-04-26 06:53 -34.42560 150.10581 21438 ft 375 kts 61°
2026-04-26 06:53 -34.41322 150.13346 20869 ft 372 kts 61°
2026-04-26 06:53 -34.40099 150.16091 20290 ft 368 kts 61°
2026-04-26 06:54 -34.38886 150.18815 19729 ft 366 kts 61°
2026-04-26 06:54 -34.37682 150.21522 19175 ft 364 kts 61°
2026-04-26 06:54 -34.36486 150.24211 18615 ft 363 kts 61°
2026-04-26 06:54 -34.35288 150.26900 17973 ft 362 kts 61°
2026-04-26 06:55 -34.34110 150.29542 17377 ft 359 kts 61°
2026-04-26 06:55 -34.33313 150.31331 16988 ft 358 kts 61°
2026-04-26 06:55 -34.31732 150.34873 16046 ft 366 kts 61°
2026-04-26 06:55 -34.30517 150.37594 15432 ft 367 kts 61°
2026-04-26 06:56 -34.29304 150.40306 14849 ft 367 kts 61°
2026-04-26 06:56 -34.28091 150.43016 14257 ft 367 kts 61°
2026-04-26 06:56 -34.26875 150.45732 13579 ft 368 kts 62°
2026-04-26 06:56 -34.26054 150.47567 13162 ft 367 kts 62°
2026-04-26 06:57 -34.24844 150.50270 12554 ft 365 kts 62°
2026-04-26 06:57 -34.23653 150.52929 11971 ft 363 kts 62°
2026-04-26 06:57 -34.22452 150.55607 11390 ft 361 kts 62°
2026-04-26 06:57 -34.21265 150.58255 11027 ft 353 kts 62°
2026-04-26 06:58 -34.20117 150.60813 10871 ft 340 kts 62°
2026-04-26 06:58 -34.19021 150.63252 10712 ft 322 kts 61°
2026-04-26 06:58 -34.17978 150.65570 10573 ft 305 kts 61°
2026-04-26 06:58 -34.16992 150.67762 10448 ft 292 kts 61°
2026-04-26 06:59 -34.16033 150.69893 10338 ft 287 kts 61°
2026-04-26 06:59 -34.15082 150.72007 10229 ft 287 kts 62°
2026-04-26 06:59 -34.14123 150.74135 10113 ft 289 kts 61°
2026-04-26 06:59 -34.13162 150.76271 9936 ft 291 kts 61°
2026-04-26 07:00 -34.12187 150.78433 9595 ft 294 kts 61°
2026-04-26 07:00 -34.11210 150.80597 9286 ft 292 kts 61°
2026-04-26 07:00 -34.10244 150.82737 8979 ft 288 kts 61°
2026-04-26 07:00 -34.09294 150.84846 8735 ft 284 kts 61°
2026-04-26 07:01 -34.08354 150.86935 8503 ft 283 kts 61°
2026-04-26 07:01 -34.07407 150.89040 8281 ft 286 kts 61°
2026-04-26 07:01 -34.06466 150.91129 8042 ft 290 kts 61°
2026-04-26 07:01 -34.06322 150.91450 8009 ft 290 kts 61°
2026-04-26 07:02 -34.05539 150.93188 7786 ft 286 kts 61°
2026-04-26 07:02 -34.04595 150.95280 7553 ft 282 kts 61°
2026-04-26 07:02 -34.03666 150.97347 7323 ft 279 kts 63°
2026-04-26 07:02 -34.03176 150.99598 7072 ft 281 kts 90°
2026-04-26 07:03 -34.03611 151.01863 6864 ft 280 kts 117°
2026-04-26 07:03 -34.04762 151.03742 6644 ft 279 kts 133°
2026-04-26 07:03 -34.06107 151.05429 6397 ft 279 kts 134°
2026-04-26 07:03 -34.07497 151.07078 6136 ft 280 kts 142°
2026-04-26 07:04 -34.09223 151.08103 6034 ft 278 kts 165°
2026-04-26 07:04 -34.11120 151.08608 6001 ft 278 kts 169°
2026-04-26 07:04 -34.13007 151.09063 5994 ft 276 kts 169°
2026-04-26 07:04 -34.14893 151.09529 6000 ft 276 kts 169°
2026-04-26 07:05 -34.16747 151.10000 5964 ft 273 kts 168°
2026-04-26 07:05 -34.18577 151.10471 5826 ft 265 kts 169°
2026-04-26 07:05 -34.20373 151.10929 5478 ft 263 kts 169°
2026-04-26 07:05 -34.22168 151.11368 5116 ft 262 kts 169°
2026-04-26 07:06 -34.23957 151.11798 4797 ft 262 kts 169°
2026-04-26 07:06 -34.25743 151.12229 4493 ft 262 kts 169°
2026-04-26 07:06 -34.27512 151.12720 4335 ft 258 kts 160°
2026-04-26 07:06 -34.28958 151.13923 4314 ft 253 kts 129°
2026-04-26 07:07 -34.29711 151.15820 4293 ft 255 kts 98°
2026-04-26 07:07 -34.29597 151.17959 4241 ft 260 kts 70°
2026-04-26 07:07 -34.28915 151.19982 4161 ft 260 kts 64°
2026-04-26 07:07 -34.28039 151.21896 4018 ft 259 kts 47°
2026-04-26 07:08 -34.26614 151.23130 3882 ft 251 kts 19°
2026-04-26 07:08 -34.24965 151.23746 3814 ft 243 kts 14°
2026-04-26 07:08 -34.23398 151.24243 3746 ft 223 kts 13°
2026-04-26 07:08 -34.21947 151.24490 3575 ft 207 kts 355°
2026-04-26 07:09 -34.20581 151.24247 3471 ft 190 kts 350°
2026-04-26 07:09 -34.19333 151.23969 3449 ft 178 kts 348°
2026-04-26 07:09 -34.18120 151.23680 3354 ft 179 kts 349°
2026-04-26 07:09 -34.16842 151.23356 3316 ft 201 kts 349°
2026-04-26 07:10 -34.12625 151.22240 2973 ft 177 kts 348°
2026-04-26 07:11 -34.10397 151.21659 2996 ft 161 kts 348°
2026-04-26 07:11 -34.09286 151.21356 2851 ft 166 kts 347°
2026-04-26 07:11 -34.08186 151.21035 2595 ft 161 kts 348°
2026-04-26 07:11 -34.07111 151.20756 2370 ft 153 kts 350°
2026-04-26 07:12 -34.06066 151.20503 2195 ft 154 kts 351°
2026-04-26 07:12 -34.05025 151.20255 2030 ft 150 kts 351°
2026-04-26 07:12 -34.04033 151.20010 1848 ft 141 kts 352°
2026-04-26 07:12 -34.03101 151.19777 1666 ft 138 kts 352°
2026-04-26 07:13 -34.02162 151.19540 1458 ft 138 kts 351°
2026-04-26 07:13 -34.01223 151.19300 1281 ft 137 kts 352°
2026-04-26 07:13 -34.00274 151.19048 968 ft 143 kts 350°
2026-04-26 07:13 -33.99334 151.18746 686 ft 137 kts 349°
2026-04-26 07:14 -33.98429 151.18480 479 ft 132 kts 351°
2026-04-26 07:14 -33.97522 151.18250 398 ft 132 kts 352°
2026-04-26 07:14 -33.96606 151.18048 386 ft 146 kts 353°
2026-04-26 07:14 -33.95445 151.17734 1105 ft 177 kts 342°
2026-04-26 07:15 -33.94193 151.17207 1927 ft 203 kts 345°
2026-04-26 07:15 -33.92800 151.16737 2570 ft 211 kts 347°
2026-04-26 07:15 -33.91386 151.16338 3096 ft 208 kts 349°
2026-04-26 07:15 -33.89898 151.16407 3039 ft 211 kts
2026-04-26 07:16 -33.88393 151.16482 3050 ft 229 kts 360°
2026-04-26 07:16 -33.86807 151.16211 3737 ft 227 kts 341°
2026-04-26 07:16 -33.85440 151.15262 4121 ft 242 kts 320°
2026-04-26 07:16 -33.84507 151.13508 3613 ft 256 kts 289°
2026-04-26 07:17 -33.84354 151.11355 3177 ft 256 kts 268°
2026-04-26 07:17 -33.84606 151.09286 3073 ft 244 kts 263°
2026-04-26 07:17 -33.84887 151.07306 3183 ft 242 kts 263°
2026-04-26 07:17 -33.85345 151.05347 3261 ft 248 kts 242°
2026-04-26 07:18 -33.86542 151.03874 3451 ft 248 kts 210°
2026-04-26 07:18 -33.88191 151.03330 3619 ft 250 kts 180°
2026-04-26 07:18 -33.89919 151.03606 3812 ft 251 kts 169°
2026-04-26 07:18 -33.91620 151.04027 3954 ft 247 kts 168°
2026-04-26 07:19 -33.93297 151.04464 3981 ft 245 kts 168°
2026-04-26 07:19 -33.94942 151.04898 3996 ft 249 kts 167°
2026-04-26 07:19 -33.96649 151.05349 4003 ft 253 kts 168°
2026-04-26 07:19 -33.98374 151.05811 3988 ft 255 kts 168°
2026-04-26 07:20 -34.00104 151.06274 3995 ft 253 kts 168°
2026-04-26 07:20 -34.01826 151.06734 3991 ft 253 kts 167°
2026-04-26 07:20 -34.03543 151.07191 3985 ft 253 kts 167°
2026-04-26 07:20 -34.05261 151.07644 3992 ft 252 kts 168°
2026-04-26 07:21 -34.06969 151.08096 3989 ft 251 kts 168°
2026-04-26 07:21 -34.08688 151.08553 3909 ft 255 kts 168°
2026-04-26 07:21 -34.10432 151.09012 3806 ft 259 kts 168°
2026-04-26 07:21 -34.12204 151.09473 3670 ft 262 kts 168°
2026-04-26 07:22 -34.13983 151.09933 3553 ft 260 kts 168°
2026-04-26 07:22 -34.15734 151.10390 3419 ft 256 kts 167°
2026-04-26 07:22 -34.17476 151.10840 3299 ft 256 kts 167°
2026-04-26 07:22 -34.19169 151.11426 3158 ft 257 kts 150°
2026-04-26 07:23 -34.20485 151.12859 3045 ft 253 kts 119°
2026-04-26 07:23 -34.21008 151.14799 3012 ft 244 kts 89°
2026-04-26 07:23 -34.20984 151.16826 3004 ft 239 kts 84°
2026-04-26 07:23 -34.20874 151.18842 3009 ft 236 kts 78°
2026-04-26 07:24 -34.20254 151.20624 3002 ft 229 kts 47°
2026-04-26 07:24 -34.18999 151.21679 3016 ft 223 kts 18°
2026-04-26 07:24 -34.17495 151.22201 3004 ft 226 kts 14°
2026-04-26 07:24 -34.15962 151.22659 2998 ft 226 kts 10°
2026-04-26 07:25 -34.14444 151.22636 3014 ft 209 kts 353°
2026-04-26 07:25 -34.13081 151.22377 2994 ft 188 kts 350°
2026-04-26 07:25 -34.11867 151.22083 2955 ft 169 kts 349°
2026-04-26 07:25 -34.10743 151.21795 2847 ft 164 kts 349°
2026-04-26 07:26 -34.09644 151.21508 2631 ft 158 kts 348°
2026-04-26 07:26 -34.08606 151.21238 2462 ft 145 kts 350°
2026-04-26 07:26 -34.07642 151.20986 2251 ft 137 kts 350°
2026-04-26 07:26 -34.06713 151.20745 2077 ft 137 kts 351°
2026-04-26 07:27 -34.05782 151.20502 1898 ft 139 kts 352°
2026-04-26 07:27 -34.04820 151.20253 1695 ft 141 kts 351°
2026-04-26 07:27 -34.03867 151.20004 1506 ft 139 kts 352°
2026-04-26 07:27 -34.02927 151.19759 1329 ft 137 kts 351°
2026-04-26 07:28 -34.01985 151.19513 1139 ft 139 kts 351°
2026-04-26 07:28 -34.01041 151.19268 941 ft 140 kts 351°
2026-04-26 07:28 -34.00100 151.19017 792 ft 136 kts 352°
2026-04-26 07:28 -33.99188 151.18769 527 ft 132 kts 351°
2026-04-26 07:29 -33.98287 151.18526 396 ft 136 kts 352°
2026-04-26 07:29 -33.97353 151.18288 277 ft 137 kts 353°
2026-04-26 07:29 -33.96422 151.18052 99 ft 135 kts 351°
2026-04-26 07:29 -33.95565 151.17835 29 ft 115 kts 351°
2026-04-26 07:30 -33.94900 151.17667 28 ft 80 kts 349°
2026-04-26 07:30 -33.94476 151.17561 29 ft 49 kts 348°
2026-04-26 07:30 -33.94228 151.17499 29 ft 25 kts 348°
2026-04-26 07:30 -33.94032 151.17444 27 ft 34 kts 347°
2026-04-26 07:31 -33.93919 151.17458 28 ft 9 kts 57°
2026-04-26 07:31 -33.93903 151.17509 27 ft 0 kts 74°
2026-04-26 07:32 -33.93902 151.17515 27 ft 4 kts 74°
2026-04-26 07:32 -33.93867 151.17592 28 ft 14 kts 28°
2026-04-26 07:32 -33.93775 151.17579 28 ft 13 kts 346°
2026-04-26 07:32 -33.93679 151.17554 28 ft 16 kts 348°
2026-04-26 07:33 -33.93561 151.17526 28 ft 19 kts 346°
2026-04-26 07:33 -33.93421 151.17505 29 ft 21 kts
2026-04-26 07:33 -33.93281 151.17480 29 ft 20 kts 346°
2026-04-26 07:33 -33.93145 151.17447 29 ft 20 kts 348°
2026-04-26 07:34 -33.93064 151.17493 29 ft 11 kts 85°
2026-04-26 07:34 -33.93024 151.17560 29 ft 10 kts 39°
2026-04-26 07:34 -33.93010 151.17629 29 ft 9 kts 102°
2026-04-26 07:34 -33.93030 151.17697 29 ft 8 kts 114°
2026-04-26 07:35 -33.93053 151.17759 29 ft 8 kts 113°
2026-04-26 07:35 -33.93067 151.17825 29 ft 8 kts 98°
2026-04-26 07:35 -33.93074 151.17890 29 ft 8 kts 98°
2026-04-26 07:35 -33.93081 151.17947 29 ft 6 kts 98°
2026-04-26 07:36 -33.93101 151.17982 29 ft 5 kts 166°
2026-04-26 07:36 -33.93139 151.17974 29 ft 6 kts 195°
2026-04-26 07:36 -33.93154 151.17970 29 ft 4 kts 192°
2026-04-26 07:36 -33.93160 151.17969 29 ft 1 kts 191°